Wind_Speed
5 4 4 4 4 4 4 4 3 3 2 1 0 1 1 2 3 4 3 3 3 4 5 6 7 7 9 9 10 12 10 10 7 0 3 4 8 9 9 9 9 8 8 7 7 10 10 8 4 2 5 3 1 1 1 2 1 1 1 2 4 4 3 3 4 4 2 3 4 5 5 4 3 5 3 2 3 3 3 5 4 5 3 8 10 15 23 25
5 4 3 3 3 3 3 4 3 3 2 1 1 1 2 3 3 3 2 2 2 4 6 7 9 8 9 9 10 14 8 7 7 2 4 6 10 10 9 8 8 7 8 8 9 10 8 6 2 1 5 2 2 2 1 1 1 2 2 3 3 2 2 4 6 5 4 3 4 3 4 4 2 5 4 2 5 5 6 6 5 7 5 10 12 16 21 22
6 4 3 2 2 2 2 2 3 3 2 2 3 2 2 2 3 4 3 3 4 5 7 8 10 10 10 9 10 12 6 7 8 2 4 9 10 9 8 8 7 6 7 8 9 10 10 8 6 4 4 2 2 1 1 1 1 2 2 4 1 3 3 4 6 6 4 3 0 2 3 2 1 4 4 3 5 5 8 8 6 9 8 9 11 16 19 19
6 4 3 3 2 2 1 1 1 2 2 3 4 5 5 4 2 3 5 5 5 6 8 10 12 11 10 9 8 8 5 7 3 3 5 10 8 7 8 7 6 6 8 7 8 11 11 9 7 5 3 3 1 1 2 2 1 1 1 4 2 4 3 5 6 5 4 4 3 0 3 2 2 3 4 3 4 6 8 8 8 11 11 11 13 15 19 18
6 4 3 3 2 2 1 1 1 1 1 2 4 6 7 7 5 2 3 5 6 6 8 11 12 10 8 7 6 5 4 4 1 3 7 8 6 7 7 5 5 6 7 6 7 9 9 9 7 3 2 3 1 1 2 2 2 1 3 6 4 4 3 3 5 5 3 2 3 1 2 2 1 2 4 5 6 7 3 2 3 6 7 7 14 17 18 18
5 4 3 2 2 2 2 1 2 2 1 1 2 5 7 7 6 4 2 3 4 4 7 11 10 7 4 5 5 4 5 1 3 5 8 7 5 7 8 5 5 6 4 5 7 8 7 7 5 3 3 3 2 1 0 2 1 2 4 3 3 3 2 3 4 3 3 2 3 1 1 2 0 3 5 8 11 9 2 3 3 3 2 3 15 18 14 15
6 4 3 2 2 2 2 2 2 3 3 3 4 5 5 6 5 4 3 2 3 4 7 10 9 6 3 5 5 5 6 0 5 7 8 6 4 8 9 7 7 5 2 5 7 7 6 7 6 3 2 2 3 1 1 0 2 3 4 2 1 2 2 3 4 0 1 3 2 2 3 2 4 5 5 9 12 10 6 4 5 5 4 7 13 14 13 15
6 4 3 3 3 3 3 3 3 4 4 4 4 4 4 5 5 4 3 4 4 5 6 9 10 8 4 4 5 5 4 2 6 8 7 5 4 8 10 9 9 6 4 6 8 7 5 6 6 3 3 2 2 1 1 2 3 4 4 2 1 1 1 4 3 2 1 3 2 3 4 5 6 5 7 13 11 9 8 5 6 6 5 7 10 12 12 13
6 4 3 3 3 3 3 3 4 4 4 4 4 3 4 5 6 6 5 6 6 6 7 8 10 9 6 4 5 5 1 3 7 8 6 4 5 8 9 8 8 7 7 7 7 8 5 4 5 3 3 1 1 1 1 1 2 2 3 3 1 1 2 3 3 4 3 2 0 3 7 6 5 3 9 15 12 11 10 7 7 7 7 7 8 10 11 11
5 4 4 4 4 3 3 4 4 3 3 3 3 3 4 6 7 8 8 7 7 7 8 9 10 9 7 5 6 4 3 4 6 7 6 4 6 7 7 7 6 6 7 6 6 8 5 4 5 3 3 1 2 1 1 1 1 1 3 3 4 2 2 4 5 5 3 3 3 4 7 6 1 2 8 10 6 8 10 9 8 7 7 8 8 9 10 11
6 5 5 4 4 3 3 4 4 3 3 3 3 3 3 5 8 9 9 8 7 8 8 9 9 9 8 7 6 3 4 4 5 6 6 5 6 7 7 7 6 6 8 6 5 6 6 7 7 3 2 1 2 2 1 1 1 1 1 3 5 4 4 5 6 5 3 2 4 4 8 8 3 3 12 11 3 4 7 9 9 8 7 8 9 9 8 10
6 6 5 4 4 3 3 4 4 4 4 3 3 2 2 6 9 11 9 8 7 7 8 9 8 7 8 7 3 1 3 3 5 5 6 6 6 8 9 9 7 6 8 7 3 3 4 5 6 3 1 3 0 2 1 2 1 1 2 4 5 6 6 8 8 5 4 2 3 2 7 8 7 9 17 13 5 4 5 7 7 8 8 7 8 7 7 9
6 6 6 5 4 4 5 6 5 5 5 5 4 3 4 8 11 12 10 8 7 7 8 8 6 5 6 3 1 1 1 3 6 6 6 6 6 7 8 8 7 5 6 6 3 2 2 2 4 2 1 2 0 2 1 2 1 1 3 3 3 4 6 9 9 6 5 3 2 2 4 5 6 13 16 8 6 6 5 7 7 7 7 7 7 6 6 7
6 6 6 6 5 5 6 7 6 6 6 7 8 8 9 11 13 13 11 8 6 6 7 7 5 3 3 0 2 1 4 4 5 6 7 6 7 7 4 5 6 4 3 4 3 1 2 3 2 1 2 2 1 2 1 2 2 1 1 2 2 2 3 3 7 6 5 2 1 3 2 6 8 8 8 6 8 8 6 7 7 7 7 6 6 6 6 7
6 6 6 5 4 6 7 8 8 8 9 10 11 12 13 13 14 14 10 8 6 6 6 5 3 3 3 1 2 1 5 3 3 6 7 5 6 6 4 5 6 4 4 4 3 2 2 3 1 2 1 1 1 1 2 3 3 2 1 2 1 3 2 3 6 6 3 1 4 4 2 7 9 5 4 6 6 8 7 8 7 7 6 6 6 6 5 5
7 5 5 4 5 7 9 10 10 10 12 13 13 14 14 14 14 12 9 7 6 5 5 4 2 3 4 0 1 1 2 2 4 6 6 5 5 6 8 8 6 4 3 3 3 3 3 3 1 1 0 1 2 3 3 3 3 3 3 3 3 4 3 2 2 2 2 2 5 5 3 5 7 4 3 5 6 7 8 8 7 6 5 4 4 6 5 4
7 6 6 6 8 10 11 11 12 12 13 14 13 12 11 11 10 7 5 6 5 3 4 3 2 3 2 1 0 1 2 3 5 5 4 6 5 6 8 7 5 4 3 2 2 3 4 2 0 1 2 2 4 3 3 4 3 2 3 4 5 4 3 1 1 1 2 2 4 6 6 7 10 11 9 7 8 9 8 7 7 6 3 3 1 4 6 6
8 7 8 8 10 12 12 12 13 13 13 13 12 9 7 6 4 2 4 6 4 4 4 4 3 2 1 2 1 3 5 4 5 5 4 5 6 6 6 5 6 5 4 4 3 3 3 2 1 2 2 3 4 3 3 3 2 2 2 3 5 4 5 5 2 2 4 3 3 5 7 10 13 13 14 10 7 8 9 7 6 3 2 4 3 2 2 5
9 9 9 10 11 12 12 13 12 13 12 12 12 9 5 3 1 1 3 4 2 2 2 1 1 2 1 2 3 6 7 5 5 3 2 5 7 6 6 6 6 5 3 3 4 5 2 2 2 2 4 5 5 5 5 1 2 1 2 2 5 4 6 6 1 2 3 2 4 7 7 10 11 13 13 10 7 6 7 4 2 3 5 5 5 5 5 5
11 10 11 12 12 13 13 12 12 12 11 11 12 9 4 1 1 1 1 1 2 0 1 0 1 3 2 2 5 9 7 3 3 0 3 7 7 6 5 5 5 4 3 3 3 2 1 2 4 4 3 1 1 0 2 3 3 2 3 3 5 5 6 5 2 2 1 2 5 6 7 10 11 14 13 10 9 5 2 4 6 7 6 5 6 6 6 5
12 12 12 13 13 14 13 12 10 10 9 10 11 6 1 2 2 1 2 1 1 1 1 1 2 3 1 2 6 8 4 3 3 2 5 8 4 3 2 3 3 3 4 4 2 1 1 4 4 1 3 4 4 4 4 3 2 2 3 5 5 5 5 1 3 3 2 1 4 5 8 10 12 15 13 9 5 3 7 7 7 6 5 5 6 6 5 3
12 13 13 13 14 14 13 11 8 8 7 7 8 4 3 2 1 0 1 2 1 2 2 1 2 2 2 2 4 5 2 3 2 4 7 10 2 2 2 0 4 3 2 2 2 1 2 4 1 3 3 2 3 3 3 1 2 3 4 4 4 5 3 3 3 3 3 1 4 6 7 9 14 15 9 4 4 7 7 6 6 6 6 6 6 6 6 6
13 13 13 14 14 14 14 10 6 7 8 6 6 4 3 2 1 2 1 3 1 1 2 1 1 2 2 2 4 5 3 2 0 2 8 10 1 1 2 2 5 5 2 3 3 4 4 2 2 3 4 3 1 2 0 2 3 4 5 4 4 2 2 0 1 2 3 4 5 6 6 8 13 10 2 6 7 7 6 8 7 6 6 7 7 8 8 9
14 14 14 15 15 14 13 8 5 7 7 6 6 5 2 1 1 2 1 3 1 1 0 1 0 2 1 1 3 4 2 1 1 2 8 7 2 1 1 1 4 5 3 2 2 5 4 1 3 3 3 3 2 1 2 3 3 4 4 3 4 2 2 1 2 3 4 3 3 4 5 6 7 3 5 5 5 7 6 8 8 6 7 7 8 9 8 8
14 14 14 15 15 14 12 4 4 6 4 4 5 4 2 0 1 2 1 2 1 1 0 0 1 0 2 2 2 2 2 2 0 3 6 5 2 1 1 1 1 2 2 2 3 5 3 1 2 3 2 1 2 3 2 3 3 3 0 2 2 3 3 3 5 6 4 3 1 0 3 3 3 2 6 5 5 7 6 8 9 8 8 8 8 8 7 7
15 15 15 16 15 15 10 1 4 7 2 2 2 1 1 1 1 2 1 2 1 0 0 1 2 0 2 1 2 1 1 1 1 2 3 2 1 1 1 0 2 1 3 2 3 3 1 0 1 2 2 1 2 4 2 2 2 4 2 3 4 3 2 3 4 3 1 3 2 2 1 2 4 2 6 7 7 8 8 9 9 8 7 7 6 6 6 7
14 15 16 16 16 14 7 2 7 8 1 1 2 1 0 1 1 1 1 2 1 0 1 1 1 2 1 1 1 1 1 1 1 0 1 1 0 1 1 1 1 0 1 1 2 1 2 1 1 1 1 2 2 3 2 2 1 3 3 2 3 2 3 3 2 1 3 5 4 5 4 2 5 4 6 10 9 8 9 8 8 7 7 7 6 7 7 7
15 15 15 16 15 12 7 5 7 4 1 4 3 1 1 2 2 1 1 2 1 0 0 1 0 1 0 1 2 2 1 1 1 1 1 1 0 2 2 3 2 2 1 1 2 2 0 1 1 0 1 2 1 0 3 3 0 1 2 1 2 4 4 3 2 3 4 4 5 5 5 2 5 2 6 9 9 8 8 7 7 7 7 7 7 7 7 7
15 15 15 15 12 10 9 6 3 2 3 5 2 1 2 3 3 0 1 2 0 1 0 1 1 0 1 2 2 1 1 1 1 1 2 2 1 1 2 2 2 4 3 4 4 2 1 1 0 0 0 1 0 1 1 2 1 1 2 3 5 6 4 2 3 3 3 3 4 4 7 2 4 3 4 5 6 6 6 6 6 7 7 6 6 6 6 6
16 16 16 14 11 10 9 4 4 4 4 4 3 3 3 2 1 0 2 2 1 1 1 0 0 1 3 3 0 1 1 1 0 1 1 1 1 2 1 1 0 3 3 3 3 1 2 1 1 0 0 1 2 1 1 2 2 2 3 4 5 4 3 2 3 2 1 3 3 1 5 2 2 1 1 2 2 5 7 6 6 6 6 6 6 6 6 5
16 16 15 13 10 10 7 2 5 6 4 5 5 4 3 1 0 1 2 2 1 1 1 0 1 1 3 3 0 2 2 0 1 2 1 0 1 1 1 1 1 2 2 1 2 1 2 0 0 1 1 1 2 2 1 1 2 1 3 3 4 2 2 1 1 1 1 2 3 3 2 0 2 2 1 3 4 6 8 6 6 6 5 5 5 6 6 5
15 14 13 11 10 10 6 3 7 7 5 7 6 2 1 1 0 1 2 1 0 2 1 0 0 2 3 1 1 2 3 1 2 1 1 1 1 1 2 1 2 2 1 1 2 1 2 1 0 1 1 1 1 2 0 0 1 3 3 3 3 2 1 1 1 1 1 2 1 3 4 2 4 2 4 6 6 8 8 6 6 5 4 5 5 5 5 5
14 13 11 9 9 9 7 6 7 6 7 7 4 2 1 2 1 0 1 2 1 1 0 1 3 3 3 2 1 2 1 1 1 0 1 1 0 1 2 2 2 1 2 2 4 2 1 3 1 1 0 1 2 2 1 1 1 2 2 2 2 2 2 3 2 2 1 1 2 2 3 2 4 1 5 7 7 8 8 7 6 4 4 4 5 5 5 5
12 11 9 7 8 8 8 8 7 7 7 5 2 1 1 1 1 1 1 2 1 2 1 1 4 4 1 0 1 1 1 1 1 1 1 1 1 1 1 3 4 1 2 2 3 2 1 2 1 1 1 2 2 1 1 1 3 2 0 1 1 0 2 3 1 2 3 2 2 1 1 2 3 1 5 8 8 7 6 5 4 4 3 3 4 5 5 5
12 10 7 6 8 8 9 8 7 8 7 3 1 1 1 1 1 2 1 2 2 3 3 1 2 3 1 2 0 1 1 0 1 2 1 1 2 1 1 3 5 4 2 1 2 1 2 2 0 1 1 1 1 1 1 1 2 2 1 2 0 1 1 2 2 4 5 4 2 1 2 2 2 4 5 7 7 7 6 5 4 4 3 3 4 5 4 5
11 9 6 5 8 10 9 8 8 7 4 2 2 1 0 1 2 2 1 2 1 4 7 3 0 2 1 1 0 1 1 1 2 3 1 1 3 3 1 2 3 4 3 1 2 2 2 3 1 1 1 1 2 1 1 2 1 1 2 1 2 2 1 1 4 4 3 3 2 2 2 1 3 3 3 6 6 6 6 6 5 5 5 5 4 5 5 5
9 6 4 3 7 10 8 7 8 6 2 2 1 1 0 1 0 1 2 2 0 0 4 4 1 1 2 1 1 2 2 1 1 2 1 1 2 2 2 1 2 3 3 1 1 1 1 3 2 1 1 1 0 2 2 1 1 1 0 3 3 0 1 1 2 3 2 3 2 1 2 3 0 1 2 5 5 6 6 5 5 6 7 6 5 6 5 6
8 4 3 3 7 9 7 8 8 4 2 2 1 1 1 1 1 2 2 2 1 0 2 2 0 2 2 3 2 3 3 3 3 3 2 1 1 2 2 1 1 2 2 1 0 1 2 3 2 1 1 1 1 1 2 1 1 0 2 3 1 1 1 1 0 2 2 3 3 2 3 4 2 0 2 4 5 5 5 5 6 7 7 6 6 6 6 9
6 3 1 3 8 8 6 8 6 3 2 2 1 1 1 2 2 2 2 1 1 1 1 1 1 1 1 2 2 2 2 2 4 3 2 1 2 2 2 1 1 1 1 1 1 2 2 1 2 2 1 1 1 0 1 0 1 2 3 2 2 2 2 1 1 1 1 3 4 2 2 2 2 3 5 5 5 5 5 6 6 7 8 8 8 8 10 12
2 2 0 5 10 8 7 7 4 1 1 1 2 1 0 1 2 1 2 1 0 1 1 2 2 1 2 1 1 1 1 1 2 2 1 2 2 2 3 3 2 2 3 2 1 3 2 2 2 2 2 1 0 1 1 1 1 1 1 0 1 1 1 1 1 1 1 3 3 3 3 1 2 4 6 6 5 5 6 6 6 9 11 11 12 12 12 12
2 1 1 7 11 8 6 4 1 1 1 1 2 1 0 0 0 1 1 2 1 1 1 2 1 1 3 2 1 1 2 2 2 2 2 2 3 2 2 2 3 4 4 2 1 2 2 2 3 3 3 3 1 0 2 2 1 2 1 0 1 1 1 2 3 0 1 2 1 2 4 2 3 5 6 6 5 6 8 8 9 11 12 13 12 12 12 11
2 1 1 9 12 7 3 1 1 1 1 1 1 1 1 1 0 1 1 0 1 0 1 0 1 1 1 2 2 2 2 3 2 1 1 3 3 2 2 2 4 3 2 1 1 1 1 2 3 4 5 2 1 1 2 3 2 2 2 2 3 2 2 1 4 2 2 2 1 1 4 3 2 5 7 8 8 8 9 10 10 11 11 12 12 12 13 12
1 2 2 9 12 5 1 1 1 1 2 1 1 1 1 1 0 0 1 1 0 0 0 0 1 1 1 2 2 3 3 2 2 2 2 2 2 1 2 4 4 2 1 1 2 2 2 1 2 4 4 1 2 1 1 2 2 3 2 3 3 2 2 1 3 1 1 2 2 3 3 2 1 4 9 10 10 10 10 10 11 11 11 12 13 13 12 13
2 2 1 9 12 5 1 1 2 2 2 1 2 1 1 1 1 0 0 1 1 1 1 1 2 2 2 2 1 3 2 1 1 3 1 2 1 0 2 3 4 2 2 1 1 2 2 0 1 3 4 2 2 1 2 2 3 3 2 4 4 3 4 1 2 1 1 3 2 3 4 1 2 7 11 11 11 11 11 12 13 13 12 12 12 12 12 13
2 1 1 5 9 7 2 0 2 1 1 1 0 0 0 0 2 2 1 2 1 1 1 1 1 1 2 1 1 3 1 1 1 1 1 2 1 1 1 2 3 2 2 1 3 2 1 1 2 2 3 3 3 2 2 3 3 2 2 4 4 4 4 1 2 1 1 3 4 3 5 4 8 13 14 13 14 15 14 15 15 13 13 13 12 12 13 14
1 1 1 1 5 6 2 0 2 2 0 1 0 0 1 0 2 0 1 1 1 1 1 1 1 1 1 1 2 4 2 3 1 1 2 2 1 1 1 1 1 1 2 3 3 1 1 2 2 2 4 4 4 5 4 5 5 4 3 4 2 2 4 2 1 1 2 5 4 3 6 11 12 12 12 13 15 15 14 16 15 14 14 15 13 13 14 13
1 1 1 1 2 3 2 2 4 2 0 1 0 1 2 2 1 1 1 1 1 1 1 1 1 1 1 2 2 3 1 2 2 1 1 2 1 1 1 1 0 0 1 3 1 0 2 3 1 2 4 5 6 9 8 6 5 4 5 5 2 4 4 2 1 3 4 4 3 4 10 13 12 10 11 12 14 13 13 15 15 15 15 14 14 15 15 13
1 1 0 0 0 1 1 2 4 2 0 1 0 1 2 2 2 1 1 0 1 1 0 0 1 1 2 3 2 2 4 2 1 1 0 1 1 0 1 0 0 2 1 1 1 1 1 2 1 2 4 7 9 11 9 5 3 3 6 6 5 4 3 3 1 4 4 3 6 8 12 12 9 10 11 13 14 14 15 15 15 15 15 16 17 17 15 14
1 1 1 0 0 1 0 1 2 2 1 0 1 2 2 3 3 1 0 0 1 1 0 1 2 2 3 3 1 2 3 3 1 1 1 1 2 2 0 2 1 2 2 1 1 1 1 1 0 1 5 8 8 7 5 2 2 6 7 7 7 6 4 4 2 5 7 5 7 11 13 10 7 11 13 14 14 14 13 14 14 16 18 20 19 16 15 16
0 1 1 1 0 1 1 1 2 2 2 0 1 1 2 3 4 1 1 2 1 1 1 2 3 4 3 1 2 2 2 2 1 2 1 1 2 2 1 2 1 1 1 1 1 1 1 0 1 1 4 5 2 1 1 3 5 7 7 8 8 7 8 7 6 7 7 7 8 11 12 7 7 12 15 14 13 13 14 15 16 17 20 19 16 16 17 17
1 0 1 1 1 1 1 1 2 1 1 1 2 2 2 3 3 2 1 3 2 2 2 3 4 4 2 3 2 1 3 3 2 2 3 2 2 2 1 2 3 2 1 1 1 1 1 2 3 2 3 3 1 1 1 6 9 8 8 9 8 6 7 6 5 6 7 9 10 9 6 5 9 13 14 14 15 15 15 16 16 18 21 18 15 16 18 18
1 1 1 1 1 0 1 1 1 1 1 1 2 2 1 2 2 2 1 2 2 2 1 2 3 4 3 2 0 2 2 3 3 3 4 3 3 2 1 2 3 2 1 0 0 0 1 2 3 2 3 3 3 6 4 5 6 4 5 6 6 6 7 7 7 7 7 7 6 4 4 6 10 13 15 17 18 17 15 14 16 19 19 15 15 17 19 20
Wind_Direction
58 61 67 72 77 77 75 76 91 110 130 125 354 258 274 284 302 306 305 310 309 329 329 329 323 319 320 318 327 328 318 304 287 242 63 359 330 320 314 310 304 308 312 307 294 289 287 268 241 236 257 229 200 100 153 210 119 264 231 237 260 263 279 353 18 48 43 101 128 165 174 214 180 162 167 144 220 232 211 209 218 214 139 108 119 123 133 146
49 51 57 68 83 90 86 83 87 90 86 66 4 313 285 285 288 290 292 301 303 329 330 331 323 315 314 310 323 329 316 288 282 106 63 335 328 322 308 308 300 299 305 305 306 304 301 300 322 259 258 238 131 119 175 178 173 230 255 253 258 325 4 8 11 46 28 50 109 144 177 233 184 149 153 182 215 200 224 225 204 219 163 121 133 138 141 150
39 40 49 57 81 95 103 94 88 83 66 49 30 13 334 295 267 259 262 272 287 312 321 324 319 309 306 305 319 330 319 274 268 117 24 327 327 316 309 308 293 295 298 298 310 312 310 315 321 288 262 250 149 135 219 125 182 222 240 260 287 6 18 43 31 57 38 5 81 143 146 235 182 116 138 206 244 212 224 226 198 217 203 159 154 152 154 161
28 28 37 40 48 59 73 74 64 62 47 57 52 37 25 7 313 258 254 260 281 303 318 323 315 304 297 300 318 329 310 273 270 75 343 321 325 320 320 307 291 293 290 290 298 295 293 295 288 276 287 273 181 145 244 143 76 342 216 260 328 360 354 51 46 52 40 359 320 143 116 245 229 134 166 198 250 241 236 230 211 215 211 184 166 162 166 171
17 16 25 29 36 28 14 354 343 359 19 63 49 29 20 12 8 325 261 259 282 308 325 328 320 306 290 286 314 328 288 271 49 22 323 324 330 334 336 315 301 300 283 279 284 279 273 277 276 271 283 267 203 165 239 139 80 329 248 268 342 10 345 55 66 43 23 349 300 257 158 265 220 167 211 217 232 238 226 221 230 211 220 195 166 167 170 177
7 5 10 19 28 16 352 326 307 307 313 323 346 1 5 3 7 5 316 269 289 319 334 342 339 322 289 277 309 315 271 287 54 339 325 334 336 350 353 337 315 307 284 276 278 272 265 266 261 242 242 253 237 198 161 101 109 280 256 269 14 22 334 46 76 38 349 295 256 259 304 323 246 238 231 226 235 244 212 107 70 85 26 86 152 166 175 181
358 356 1 4 12 9 353 331 309 299 297 306 310 327 348 359 3 360 345 305 306 324 335 352 357 347 310 284 299 276 249 47 31 337 331 336 342 357 358 356 340 330 302 279 264 258 261 260 257 254 257 270 275 256 59 42 190 232 269 274 60 35 355 58 77 105 333 298 293 8 333 294 237 255 253 243 242 245 238 154 117 110 85 97 143 169 182 185
352 354 1 2 6 3 349 330 313 300 291 297 301 308 330 346 350 343 322 297 306 320 330 350 357 353 327 289 293 270 238 35 5 340 335 334 341 349 356 1 346 336 295 271 263 266 271 260 259 265 253 237 268 259 35 299 222 213 272 305 69 77 103 99 110 175 206 270 312 334 282 254 251 271 272 259 254 247 239 185 148 146 140 140 161 179 186 191
359 5 9 14 12 6 354 335 319 304 294 288 289 297 315 334 339 330 310 291 295 310 322 338 348 348 326 285 278 277 237 36 356 345 339 339 343 347 354 347 332 319 285 265 265 274 274 263 259 274 292 267 213 245 89 293 232 218 314 336 319 224 158 134 175 193 199 231 202 277 261 259 258 279 272 258 252 249 238 212 179 163 177 184 186 188 189 196
19 26 26 28 23 14 5 343 328 315 304 288 283 300 319 339 341 329 312 293 290 302 313 324 335 339 316 277 266 281 60 45 353 348 347 346 347 349 345 330 327 315 288 266 252 262 270 308 308 345 353 293 193 191 118 144 243 297 321 312 288 272 166 170 217 201 193 235 211 243 269 272 196 110 263 254 236 232 223 218 194 174 200 203 202 202 196 201
33 34 30 29 24 14 4 344 339 329 312 296 294 312 339 356 352 340 320 298 294 300 306 316 324 326 306 280 270 288 57 29 342 352 357 351 350 353 349 347 349 326 305 281 250 275 296 318 317 338 25 315 189 162 172 181 276 283 286 287 257 241 216 200 219 206 178 220 206 237 280 267 184 163 247 245 202 183 202 217 198 187 213 211 213 212 202 207
30 28 22 18 10 358 349 338 340 338 325 305 302 314 339 355 354 350 333 305 298 303 308 314 317 321 306 285 275 354 55 8 348 8 360 343 340 351 357 0 355 334 318 300 277 300 288 307 315 286 335 335 196 145 181 200 247 263 223 276 256 227 229 214 208 196 175 161 159 227 293 265 198 213 243 241 208 174 198 223 205 201 216 216 217 211 207 208
19 17 10 3 354 345 339 330 325 329 327 304 294 288 303 329 339 344 339 316 305 310 318 317 316 323 306 291 112 48 14 348 8 12 344 335 326 329 346 353 351 340 331 331 351 344 265 297 311 288 13 342 167 132 209 193 218 260 207 250 287 273 250 210 190 169 162 162 121 123 297 283 223 226 238 226 172 172 202 223 218 218 219 219 221 212 207 199
4 7 2 358 358 358 353 342 331 328 326 307 294 285 293 310 321 330 330 314 303 307 321 322 320 321 297 297 120 47 13 19 30 360 325 336 332 310 307 336 347 346 359 11 360 338 344 337 327 82 50 346 113 129 221 185 198 243 187 219 242 283 291 159 147 149 152 173 171 131 226 270 288 263 225 171 156 174 205 223 220 222 218 210 210 213 207 190
356 359 359 358 3 359 350 342 334 327 322 312 299 288 289 296 304 314 314 308 297 293 315 314 303 305 278 178 148 343 21 40 42 355 330 348 345 321 318 327 331 338 8 17 5 26 2 322 263 118 57 348 107 153 222 191 203 207 193 276 212 188 224 105 132 165 163 178 183 163 220 259 290 319 133 147 169 185 211 231 229 229 231 217 197 196 202 188
358 358 354 349 345 341 338 334 330 326 320 314 304 293 287 287 294 300 300 303 294 287 308 303 291 306 290 272 144 283 18 30 15 356 336 349 341 326 328 314 294 297 339 359 5 6 320 295 307 325 27 218 203 226 252 234 222 189 182 265 258 211 217 148 161 196 140 137 182 198 263 277 286 297 157 176 192 200 224 238 246 252 259 253 197 173 177 179
3 1 351 339 334 335 337 336 334 330 326 321 313 301 292 287 288 290 298 300 284 268 283 285 312 300 279 351 84 309 18 8 357 348 330 336 332 329 326 305 286 291 301 297 301 311 285 247 355 281 211 223 228 220 275 269 243 173 176 251 261 259 284 263 263 285 158 191 220 218 237 257 268 274 269 243 207 210 232 242 251 260 283 295 230 167 166 166
9 4 352 342 339 338 337 338 338 337 337 335 327 318 306 293 282 285 306 304 274 235 244 262 295 272 218 20 359 1 356 330 325 335 337 332 328 326 314 295 302 304 286 262 230 229 247 198 153 270 227 223 230 199 212 232 192 177 204 252 283 312 308 286 261 179 185 198 246 234 241 257 264 273 276 269 238 220 225 239 252 256 34 19 14 13 129 135
13 5 354 348 345 341 339 338 340 343 344 347 342 333 316 283 218 216 275 301 286 224 237 254 271 263 259 21 12 340 327 308 305 324 1 344 330 309 284 273 285 283 283 280 197 191 222 193 175 258 247 216 203 201 220 243 103 249 272 258 277 286 277 274 145 149 205 202 234 238 252 267 274 276 277 285 288 254 225 233 298 43 53 45 37 23 34 64
12 6 359 355 350 346 345 342 343 346 347 354 348 329 307 293 220 205 241 25 36 141 182 343 301 285 275 1 4 340 320 276 265 37 34 347 335 308 270 244 259 253 244 258 213 170 58 263 230 244 283 284 118 212 316 4 44 329 305 271 260 263 267 269 136 140 271 258 245 246 261 273 280 279 282 288 285 289 18 47 44 46 47 49 50 43 38 33
10 6 1 356 352 348 348 345 346 350 350 360 356 333 336 10 319 298 340 5 89 166 200 95 301 281 298 359 2 356 338 230 229 118 29 345 322 297 260 187 242 250 217 231 227 90 67 255 251 304 352 20 42 25 23 8 340 283 262 257 264 257 261 328 107 177 203 271 270 279 282 280 280 279 285 291 284 35 48 50 52 51 56 62 60 57 59 53
10 6 2 356 351 349 348 347 349 355 357 9 14 21 76 47 347 136 315 284 157 192 221 165 255 248 126 80 12 1 307 248 213 124 18 346 274 214 5 166 259 258 181 185 204 243 227 228 271 13 343 17 57 37 29 329 268 250 236 246 266 257 251 65 91 187 168 159 272 290 294 283 281 280 291 333 54 63 56 64 59 49 56 63 58 51 54 55
9 5 2 357 353 349 347 350 356 4 13 28 39 50 84 90 100 103 266 274 253 204 227 150 295 301 114 120 11 347 285 301 20 95 10 347 282 176 354 297 280 288 269 214 219 262 253 204 36 348 321 324 40 85 17 256 236 228 222 230 256 298 13 100 196 220 196 212 253 293 301 282 280 281 4 56 73 75 73 79 70 58 64 68 64 54 52 52
4 3 2 357 354 351 347 355 16 16 25 44 59 74 93 117 72 63 302 268 255 129 356 51 357 333 5 314 340 334 306 343 305 21 11 354 332 358 309 295 301 290 276 260 267 269 261 60 14 307 289 298 283 194 211 251 264 236 206 228 266 358 32 252 322 321 277 245 249 310 304 274 267 224 116 87 94 96 96 97 85 73 73 74 72 64 60 59
359 359 360 356 355 352 346 358 32 11 22 49 53 70 73 31 22 50 322 273 239 140 31 64 167 21 6 302 301 350 357 342 306 14 15 10 345 319 293 321 273 277 342 5 310 273 261 17 326 275 257 312 302 273 231 217 281 285 212 7 358 44 24 318 343 342 319 307 201 20 308 281 305 127 138 136 118 106 100 94 85 74 66 65 68 66 64 62
356 356 356 355 355 353 347 2 6 352 2 70 38 65 67 16 16 57 318 270 241 157 6 133 172 273 29 314 292 24 7 302 74 31 10 15 323 278 301 254 201 315 1 340 288 263 182 145 280 287 293 324 279 274 273 121 316 294 285 3 20 42 1 308 334 358 315 300 249 179 232 277 323 312 159 139 114 105 92 79 78 75 71 67 62 62 60 53
354 353 353 353 355 355 354 330 341 346 342 35 351 276 259 336 348 41 303 256 226 279 338 120 208 277 30 52 306 320 294 271 107 69 332 6 40 191 259 284 213 272 352 335 296 229 137 144 244 285 289 282 261 272 327 46 355 256 237 328 353 309 268 268 293 224 242 299 281 224 199 235 297 283 149 128 113 103 90 80 80 74 69 66 60 60 58 50
352 350 352 353 354 1 7 335 335 355 338 329 329 253 258 320 318 328 315 284 248 272 296 118 86 284 202 189 264 268 282 311 279 214 170 262 241 144 231 265 276 274 200 178 261 260 217 136 208 203 265 262 256 313 343 348 351 208 233 271 288 267 262 272 265 249 265 306 290 232 169 185 276 231 123 117 114 107 95 89 84 74 68 64 58 58 59 58
349 349 352 353 353 2 4 354 2 20 341 339 337 280 308 308 304 308 271 280 261 70 313 166 125 355 267 236 217 218 253 306 294 206 157 223 248 165 233 269 290 291 242 204 241 277 22 28 325 6 239 252 356 94 337 323 261 258 285 257 257 249 232 237 231 252 269 253 270 223 160 196 278 183 135 110 108 117 114 98 87 80 73 66 63 64 62 63
347 349 351 352 357 356 351 6 31 10 349 347 333 316 319 293 297 342 259 270 35 53 285 206 167 287 319 329 220 195 232 181 191 247 200 172 177 176 256 336 289 276 254 221 253 245 96 6 308 335 335 339 334 233 184 329 330 329 297 273 276 252 168 161 224 236 270 256 289 231 163 171 310 232 135 97 102 126 122 103 88 81 73 70 70 71 67 64
345 347 349 354 2 357 351 359 360 355 345 332 322 311 313 251 228 312 259 233 81 6 275 37 353 288 348 13 6 302 316 306 333 304 290 15 177 209 282 355 30 303 272 221 254 167 114 251 274 34 338 321 298 251 146 355 325 302 282 287 309 305 124 120 218 181 195 259 308 345 12 84 222 251 66 71 55 85 104 98 85 75 73 77 69 68 68 64
343 344 348 356 1 3 7 341 332 337 328 327 324 294 285 281 246 314 303 279 354 344 346 78 335 328 351 13 214 309 335 301 318 334 351 339 347 31 340 346 23 330 286 4 301 186 144 248 131 89 326 353 292 284 37 331 240 245 277 323 344 328 291 248 234 202 197 214 254 10 18 305 240 221 129 115 78 78 88 85 82 72 62 67 68 67 64 57
341 343 348 354 358 3 3 342 329 326 325 330 319 248 267 311 287 212 338 341 322 304 303 216 269 299 316 312 275 320 310 236 307 27 172 260 161 66 354 342 18 257 233 344 331 322 323 302 289 140 29 359 328 331 6 338 317 293 300 16 9 343 311 287 272 278 284 243 268 24 54 249 266 342 114 114 95 89 88 87 90 77 54 54 73 74 60 50
340 343 345 348 356 359 350 342 333 324 324 324 298 268 307 306 278 126 2 5 6 282 230 215 301 297 270 18 359 339 317 246 288 313 250 208 171 113 28 16 29 346 264 306 325 329 293 277 304 22 278 301 336 58 148 268 314 295 184 67 27 239 279 278 315 324 302 292 292 14 65 249 265 69 99 98 95 94 92 97 100 80 53 51 72 67 53 43
340 343 343 342 351 352 346 341 333 329 326 303 261 273 283 312 7 36 4 344 1 328 302 275 319 300 234 110 58 29 50 251 306 330 273 251 9 35 48 22 22 11 335 316 343 350 246 240 331 13 270 287 16 95 149 343 325 293 25 44 272 226 261 285 303 283 271 284 289 196 234 286 82 97 98 102 106 100 83 68 68 66 41 52 72 56 41 30
340 340 341 339 343 345 344 341 333 335 332 291 282 288 272 40 10 16 2 305 331 327 309 305 20 310 311 102 17 7 69 244 316 346 310 107 45 32 53 28 357 8 33 6 339 5 315 274 189 148 283 354 35 349 347 39 8 309 11 351 236 202 162 303 295 282 266 277 263 176 226 327 87 101 133 132 116 91 74 47 48 56 36 40 54 40 29 14
337 321 312 321 337 337 335 336 333 331 318 285 297 308 27 102 321 340 1 328 306 289 306 314 72 9 349 11 2 2 349 288 315 333 291 110 67 3 30 74 335 355 50 53 348 54 334 284 240 129 317 329 47 313 329 27 5 344 272 282 280 190 111 84 305 311 301 267 252 177 284 285 279 287 206 147 92 56 56 41 39 44 31 27 30 27 17 353
331 298 274 306 334 333 326 330 329 314 272 272 250 127 43 33 10 6 6 327 274 233 301 311 23 77 27 345 336 357 351 340 352 343 324 43 46 327 344 59 7 359 35 44 31 16 337 295 289 330 311 164 132 327 331 334 318 301 263 280 355 72 338 300 314 321 305 281 280 286 295 300 317 20 134 110 64 43 37 28 32 31 21 19 23 16 359 350
324 277 245 354 346 338 328 326 322 285 256 290 333 61 55 46 64 41 354 318 271 301 327 336 358 64 40 332 330 353 17 355 336 336 346 21 8 343 348 5 22 37 4 10 358 323 327 231 268 298 318 97 117 164 25 5 311 343 328 331 71 137 191 206 258 248 261 275 283 297 334 356 16 103 111 84 62 56 36 21 25 24 14 11 10 1 355 353
315 257 217 14 358 341 321 316 310 276 277 3 32 32 108 85 94 90 357 346 272 305 354 6 357 339 331 2 34 7 18 277 291 298 318 16 22 13 22 12 348 349 349 358 338 317 311 220 258 306 345 6 296 206 43 54 80 34 352 142 27 258 171 4 299 188 233 275 284 313 316 24 51 77 85 69 66 71 49 30 20 13 8 5 1 356 354 352
291 258 33 5 355 337 315 317 355 11 352 90 71 51 72 311 108 102 51 4 336 102 59 355 321 312 325 338 43 15 313 284 276 277 300 22 40 23 40 20 339 336 335 341 347 326 323 270 289 309 293 302 312 222 359 5 55 55 359 303 35 12 35 337 296 41 37 297 280 309 292 311 43 79 78 59 65 68 48 35 18 5 1 359 356 355 353 350
275 295 357 359 354 342 326 359 77 5 19 75 63 55 47 265 242 67 100 203 303 76 97 297 248 245 323 350 349 358 342 299 296 327 335 41 45 21 22 349 321 311 307 347 90 59 342 280 286 282 267 292 58 182 337 338 336 61 47 19 26 27 60 339 286 336 13 308 327 291 266 295 33 85 63 33 38 48 37 28 12 359 358 357 354 354 352 349
316 319 340 357 355 347 354 38 27 29 68 106 177 117 56 300 137 161 193 173 239 279 271 237 89 11 8 30 344 345 18 324 307 28 15 32 55 8 336 338 328 311 289 327 66 26 342 237 255 273 263 70 79 230 311 339 353 55 65 34 36 54 72 119 243 299 342 263 267 260 251 259 346 46 38 31 36 34 21 15 7 357 356 356 352 350 349 349
333 297 313 357 1 9 85 42 5 28 84 160 207 125 80 358 11 321 136 75 30 340 315 322 64 22 3 42 316 310 15 2 7 60 26 346 37 246 311 336 337 358 35 29 6 358 328 271 2 321 301 347 24 342 344 350 5 32 50 45 53 63 54 32 246 16 261 236 240 255 255 254 335 356 16 32 31 17 8 9 4 357 353 352 349 347 348 345
319 258 228 2 20 40 96 157 346 351 92 119 174 108 175 107 30 5 17 43 20 6 350 330 57 334 321 50 261 275 254 208 300 49 30 340 43 181 260 339 331 5 50 341 301 309 302 291 337 331 303 315 327 325 343 352 346 350 62 60 46 49 53 9 316 27 259 328 353 281 272 320 344 352 6 17 13 4 2 2 357 354 351 347 345 345 344 337
327 344 281 324 32 50 93 190 348 341 37 60 100 75 302 314 94 35 311 29 33 356 282 236 201 220 259 271 277 280 224 175 181 9 359 345 18 167 182 344 343 17 359 313 288 276 308 292 288 264 256 275 295 294 320 355 334 318 19 53 66 79 71 54 358 282 297 334 328 287 324 333 334 350 6 8 4 359 357 354 350 349 348 344 342 340 336 330
332 326 344 313 355 42 81 46 10 10 56 352 49 67 345 332 114 140 300 54 53 317 251 237 301 265 278 323 315 309 306 169 158 68 341 289 294 121 149 235 256 131 323 307 273 217 305 285 315 310 275 288 303 298 310 333 319 321 14 27 58 105 96 78 4 294 321 330 288 329 349 329 324 357 10 1 357 354 351 349 347 345 342 339 337 333 332 338
13 266 311 75 325 21 37 10 1 3 37 353 47 83 353 349 44 41 350 69 173 227 215 61 358 265 298 348 338 315 334 336 182 133 98 275 306 336 171 280 15 152 186 315 15 47 334 279 359 23 297 290 283 279 286 299 319 36 42 21 30 76 108 107 255 293 327 312 287 326 334 316 330 7 3 355 355 349 346 347 344 341 339 335 332 332 339 350
60 72 33 273 66 49 355 298 325 326 320 13 84 63 359 5 30 49 280 280 161 152 308 19 55 22 360 13 332 290 336 346 279 255 51 11 306 295 280 1 353 200 221 329 41 49 64 263 285 213 272 282 276 270 269 230 92 62 51 27 24 28 31 45 7 334 344 318 302 319 314 310 2 10 352 351 351 344 345 344 343 343 339 333 331 336 347 349
47 60 23 297 88 98 161 249 289 293 277 190 83 16 339 18 33 31 4 359 5 46 353 351 8 353 331 297 274 281 28 27 270 274 348 18 335 330 11 15 14 231 250 49 34 16 84 41 301 243 281 299 292 245 223 125 96 72 55 30 22 24 24 22 4 350 343 314 308 315 307 313 12 0 345 344 345 345 346 345 346 344 334 330 337 345 346 344
15 5 22 320 293 140 147 229 252 304 338 22 20 350 351 35 29 332 8 34 25 31 14 349 346 331 269 220 248 354 46 24 347 336 353 351 337 347 6 7 11 1 358 73 347 347 73 323 313 326 314 301 210 278 13 95 88 71 53 26 13 25 26 9 346 333 324 317 322 329 329 340 349 344 339 339 343 346 344 345 345 334 326 333 349 348 344 345
47 3 46 334 283 174 35 292 278 6 21 349 12 15 24 42 21 336 5 60 64 64 31 329 327 316 277 218 76 36 20 351 345 354 348 319 300 326 30 42 25 17 11 74 274 342 41 316 310 342 319 289 310 330 345 98 97 57 40 21 8 25 20 358 337 327 334 349 347 343 351 341 339 345 343 339 341 340 339 344 336 323 324 341 351 349 348 347
Height
820 820 819 819 818 818 818 817 817 817 817 817 816 816 816 815 815 815 814 813 813 813 812 812 811 811 810 809 808 807 807 805 804 804 805 806 805 805 804 803 803 802 802 801 800 798 796 794 793 793 793 793 793 793 794 793 794 799 805 812 813 806 802 797 794 796 798 802 805 804 803 804 807 810 809 809 811 811 812 812 811 811 812 815 818 818 819 822
821 820 820 819 819 819 818 818 818 817 817 817 816 816 815 815 815 814 814 814 813 813 812 812 811 810 810 809 808 807 806 805 804 803 805 805 804 804 803 803 802 802 801 800 799 798 796 794 792 793 793 794 793 794 796 794 796 802 805 810 809 803 801 797 795 796 797 800 803 802 802 803 804 806 808 810 811 811 813 811 811 812 812 816 818 819 820 821
821 821 820 820 819 819 819 818 818 818 817 817 816 816 815 815 814 814 814 813 813 813 812 812 811 810 809 809 808 807 806 805 804 804 805 805 804 803 803 802 801 801 801 800 800 799 798 796 794 794 794 795 794 795 797 797 798 799 804 811 806 800 799 797 796 798 799 800 800 801 802 803 802 802 807 811 809 810 811 809 810 811 811 814 817 818 820 821
821 821 820 820 820 819 819 818 818 818 817 817 817 816 815 814 814 814 813 813 813 812 812 811 810 809 809 808 808 807 806 807 806 805 806 805 804 803 802 802 801 801 800 800 800 799 798 797 795 794 796 798 794 795 798 798 800 799 803 808 802 797 799 799 799 800 801 801 801 801 804 805 802 802 806 809 811 810 806 802 803 805 805 808 813 815 817 819
822 821 821 820 819 819 818 818 818 818 817 817 816 816 815 814 814 813 813 813 813 812 812 811 809 808 808 808 808 807 807 812 809 805 805 804 803 803 802 801 800 800 800 800 799 799 798 796 795 795 798 800 797 798 799 796 799 802 802 800 797 798 801 800 801 803 803 803 803 802 805 805 801 802 804 806 811 806 800 798 797 798 799 801 806 811 813 815
822 821 821 820 819 819 818 818 818 817 817 817 816 816 815 815 814 813 813 813 812 812 811 810 809 808 808 807 808 807 809 814 809 804 805 804 803 802 801 801 800 800 799 799 799 798 798 796 797 799 799 799 798 799 800 796 799 805 802 797 798 800 801 801 803 807 806 804 804 804 804 802 803 806 803 804 804 798 796 797 796 797 798 798 801 807 810 811
822 821 820 820 819 819 818 818 818 817 817 817 816 816 816 815 814 813 813 813 812 812 811 810 809 808 808 807 807 807 807 809 806 805 805 803 803 802 801 801 799 799 799 799 799 798 797 797 798 798 799 800 799 798 800 799 799 805 804 798 800 801 801 803 805 808 807 806 805 805 805 805 807 807 802 800 797 794 795 795 796 797 797 798 801 804 806 807
821 821 820 820 819 819 818 818 818 817 817 817 816 816 816 815 814 814 813 813 812 812 811 810 809 808 808 807 807 806 805 806 806 805 804 803 803 802 801 800 800 800 799 799 798 797 797 798 798 797 799 801 799 799 801 801 800 804 804 800 800 802 802 804 807 808 808 807 806 806 808 806 805 804 801 797 793 792 793 794 795 796 797 798 800 802 803 804
821 821 820 820 819 819 818 818 818 818 817 817 816 816 816 815 814 814 813 812 812 811 811 810 809 808 808 807 807 807 806 806 806 804 803 803 803 802 801 801 800 800 799 799 797 798 798 797 796 795 798 799 799 801 802 805 806 803 803 801 801 802 802 805 807 807 808 806 806 808 808 805 802 803 800 791 790 790 789 792 794 795 796 797 798 799 800 801
822 821 820 820 819 819 818 818 818 817 817 817 816 816 815 815 814 813 812 812 811 811 810 810 809 808 808 807 807 809 807 805 806 805 804 803 803 802 802 801 800 800 799 798 797 798 797 797 795 793 796 798 799 802 803 805 807 804 803 803 802 801 801 805 806 805 806 806 806 809 808 804 801 806 801 786 784 786 786 790 791 793 795 794 796 796 797 798
822 821 821 820 820 819 819 819 818 817 817 816 816 816 815 814 814 813 812 811 811 810 810 809 809 808 807 806 807 808 806 805 806 804 804 804 803 802 802 801 800 800 799 797 797 797 796 796 794 794 798 799 799 803 804 805 806 803 804 806 803 802 802 803 805 804 805 806 804 807 808 803 804 808 797 784 783 784 785 787 788 791 793 792 794 794 795 796
823 822 821 821 820 820 819 819 818 817 817 816 816 815 814 814 813 812 811 811 810 810 810 809 809 808 807 806 806 807 806 806 805 804 804 803 803 803 802 801 800 800 800 798 797 797 797 797 795 798 801 800 801 805 805 804 804 803 805 808 804 801 803 801 802 803 804 807 804 806 808 800 801 800 786 781 784 784 786 786 786 789 790 791 791 792 793 794
823 822 822 821 820 820 819 819 818 817 817 816 816 815 814 813 812 812 811 810 810 809 809 808 808 807 808 807 806 806 806 805 805 804 804 804 803 803 802 802 801 800 800 798 797 797 797 797 796 799 800 801 804 806 805 803 804 805 805 807 806 805 802 794 796 802 804 807 803 806 810 798 791 787 778 779 783 785 788 787 786 787 787 789 789 790 792 793
823 823 822 821 821 820 819 819 818 817 817 816 815 814 814 812 812 811 810 810 809 809 808 808 808 807 808 807 806 806 805 805 805 805 804 804 803 803 803 802 801 801 800 798 798 798 797 797 797 798 800 802 803 805 806 805 806 806 805 807 810 812 805 791 794 802 806 808 803 807 815 803 788 780 775 778 781 784 787 786 785 785 785 786 788 789 790 792
824 823 822 822 821 820 820 819 818 817 816 816 815 814 813 812 811 810 810 809 809 809 808 808 807 807 808 806 805 805 805 805 805 805 804 804 804 803 803 802 802 801 800 799 799 798 798 798 799 800 803 803 804 807 807 806 806 805 807 810 809 811 808 798 798 801 805 807 804 808 814 803 789 780 777 779 780 783 784 783 782 781 782 783 785 787 789 791
824 823 822 822 821 820 819 818 818 817 816 815 813 812 811 811 810 810 810 809 808 808 808 808 806 807 809 807 805 805 805 805 805 805 805 804 804 804 803 803 802 801 800 800 799 799 799 799 801 803 805 806 807 807 805 806 806 803 808 810 806 805 805 804 804 801 803 806 806 807 808 802 790 781 779 780 780 782 782 781 779 779 779 779 782 785 788 790
824 824 823 822 821 820 819 818 817 816 815 813 812 811 810 809 809 809 809 808 808 808 807 808 806 807 809 806 805 806 806 806 806 806 805 805 804 804 804 803 801 800 800 800 800 800 800 801 804 804 804 805 803 803 809 811 808 805 808 808 802 799 801 804 807 805 804 807 808 807 807 803 792 782 779 778 778 780 780 779 778 778 778 779 780 783 786 789
825 824 823 822 821 820 818 817 816 815 814 812 811 810 809 809 808 808 808 808 807 807 808 807 807 812 813 807 806 807 806 806 806 805 805 805 805 804 804 803 802 801 800 801 801 801 801 801 805 806 805 805 801 803 811 809 805 807 809 809 805 803 804 802 804 807 806 808 809 807 806 800 790 782 777 773 773 776 777 777 776 775 777 780 781 783 784 787
825 824 823 822 820 819 818 817 816 814 813 812 810 809 808 808 808 808 808 807 808 809 811 810 810 815 815 809 807 808 806 806 806 805 805 805 805 804 804 804 802 802 804 805 802 801 802 803 808 811 807 803 799 800 803 799 801 805 805 809 810 810 808 799 803 809 806 809 809 806 803 795 788 781 774 771 770 771 773 774 775 776 779 782 784 785 786 788
825 824 823 821 820 819 817 816 815 814 813 812 810 809 809 810 811 810 808 808 810 811 812 812 811 811 810 808 809 808 806 806 806 805 806 805 805 804 803 803 803 804 807 808 804 802 804 808 811 809 804 798 797 797 797 797 800 803 805 808 809 811 806 796 804 811 807 808 805 798 797 792 786 779 772 771 769 769 772 775 779 782 784 785 787 789 790 791
825 824 822 821 820 818 817 816 815 814 813 812 811 810 812 815 816 815 813 811 811 811 811 811 811 810 810 810 810 809 808 806 805 805 806 805 805 805 802 802 806 807 806 805 804 804 807 812 810 805 803 801 800 800 800 801 801 803 807 809 808 808 803 798 805 811 808 808 802 795 795 792 785 778 772 770 769 773 778 781 785 786 787 788 790 792 793 793
825 824 823 822 820 819 817 816 815 814 814 813 812 812 814 816 817 817 817 814 811 811 811 810 810 810 810 811 810 810 810 808 806 805 806 805 804 806 805 804 807 806 802 802 805 808 809 811 809 806 805 803 803 803 803 804 805 806 807 810 810 803 798 802 808 808 807 808 803 796 797 794 784 777 773 771 773 779 783 785 789 789 789 792 793 795 795 796
825 824 823 821 820 819 817 816 816 814 814 814 813 814 815 816 816 816 818 817 813 811 810 810 811 810 810 811 811 810 810 810 809 807 807 807 805 807 808 807 807 804 802 802 806 810 809 808 810 809 807 805 805 806 807 808 807 808 807 808 807 799 798 805 808 806 805 804 801 799 802 799 786 778 776 776 778 783 786 788 790 792 793 795 797 798 799 801
826 824 823 821 820 818 817 816 815 815 815 814 815 816 816 816 816 816 817 814 811 811 811 810 811 811 811 811 811 811 811 810 810 809 808 808 807 808 808 808 809 807 804 802 804 807 807 810 813 811 809 807 806 807 808 810 808 804 804 805 803 801 803 806 805 804 802 800 801 803 805 796 781 778 781 780 782 785 787 789 791 794 795 797 799 801 803 804
826 824 823 822 820 818 817 816 816 816 816 815 816 816 816 816 816 817 817 814 812 812 812 812 811 811 811 811 811 811 811 811 810 810 809 809 810 809 808 808 809 809 806 805 805 806 807 813 816 812 810 808 808 809 806 808 809 803 805 809 807 806 808 807 807 808 806 804 803 806 808 793 773 773 782 783 783 786 788 790 794 797 798 800 802 803 805 806
825 824 823 821 820 818 817 816 816 816 816 816 817 817 817 817 816 816 818 819 818 814 813 814 812 812 812 811 810 810 813 813 810 810 810 811 811 810 810 807 807 809 807 807 807 808 811 815 816 813 810 809 810 810 804 805 810 807 809 813 811 810 811 811 810 812 812 806 802 804 809 803 784 776 779 782 785 789 791 793 797 800 801 803 804 805 806 807
825 824 823 821 820 818 817 817 817 816 816 818 817 817 817 816 816 816 819 824 821 814 814 813 812 813 812 811 810 811 816 814 811 811 810 811 810 810 811 808 807 809 808 809 809 810 814 815 815 813 811 810 810 810 807 807 811 810 812 815 813 811 812 811 812 815 813 807 803 800 803 811 802 783 776 781 788 792 796 799 800 801 803 804 805 806 808 809
826 824 823 822 820 819 818 818 818 817 818 818 816 817 817 816 817 816 822 831 823 813 813 813 812 812 811 811 811 812 814 811 812 812 809 810 810 810 812 809 809 809 808 811 812 810 812 813 813 813 812 811 810 812 811 809 810 811 815 816 813 812 812 811 814 816 812 811 810 799 798 811 803 784 778 781 789 797 800 802 803 804 806 806 807 808 809 810
826 824 823 822 820 819 819 818 818 818 818 817 817 817 816 816 817 816 826 832 820 812 814 813 812 813 811 811 811 812 812 811 813 811 809 810 809 810 813 810 809 809 807 809 810 809 813 815 814 812 812 812 813 814 813 811 811 813 816 815 812 813 813 814 816 816 813 815 812 798 798 809 798 783 783 784 789 799 802 803 805 806 807 808 809 810 811 812
825 824 823 821 820 820 818 818 819 818 818 817 817 817 816 817 818 824 833 830 818 814 814 812 814 815 813 813 813 812 812 812 811 810 809 810 810 810 812 811 811 811 810 810 810 811 815 818 817 815 815 814 814 814 814 814 814 814 814 812 809 810 813 816 814 813 815 813 808 799 796 804 801 789 789 791 792 798 801 804 807 807 809 810 810 811 812 813
825 824 823 821 820 820 819 819 818 818 818 817 817 816 816 818 821 829 833 823 816 817 814 814 817 816 817 820 819 814 813 813 812 812 811 809 811 811 811 812 812 811 811 810 811 813 816 817 816 818 818 817 815 814 816 818 816 816 814 811 809 806 810 816 814 815 818 810 806 804 798 803 805 795 794 799 798 798 802 806 808 809 810 811 811 812 812 814
825 824 823 821 821 820 819 819 819 819 818 817 817 815 818 824 825 827 824 817 819 821 819 821 820 818 820 823 823 820 818 817 814 814 814 812 812 814 816 817 815 814 811 809 809 810 814 817 818 819 820 819 816 813 815 817 816 815 813 811 811 807 806 811 812 809 810 808 808 808 805 805 800 791 796 802 801 803 805 808 810 811 811 811 812 813 813 814
825 824 822 822 821 820 820 819 818 819 817 817 817 815 820 830 830 826 820 817 823 823 822 826 822 819 822 822 822 824 821 818 816 815 816 816 815 818 822 821 819 818 813 811 809 806 811 817 818 818 818 820 818 814 813 813 814 814 811 812 815 814 814 815 808 800 801 807 809 809 810 806 796 792 799 802 803 806 808 810 812 811 812 812 812 814 814 815
824 823 822 822 821 820 820 819 818 818 817 817 817 818 827 832 829 828 825 822 824 823 823 826 823 820 822 821 823 825 822 818 817 817 816 815 814 816 820 821 821 820 817 815 812 809 811 812 814 817 817 819 820 817 818 817 817 814 810 813 816 816 820 818 811 809 810 808 808 813 811 799 794 799 803 803 806 808 809 811 812 812 812 812 813 814 815 816
824 823 822 821 821 821 820 819 818 818 817 817 819 824 831 830 824 827 831 829 827 826 824 824 826 823 820 822 826 827 825 820 817 816 814 814 815 817 821 825 825 823 821 818 813 811 809 806 815 823 820 820 821 820 822 819 816 814 811 814 817 816 817 815 812 813 814 812 810 812 804 793 798 806 804 806 809 808 811 811 811 813 812 812 814 815 815 816
824 823 822 821 821 820 820 819 818 818 817 818 823 827 830 830 829 831 835 835 833 833 829 825 826 822 817 820 824 825 828 824 819 817 813 814 820 823 824 829 832 829 827 824 817 817 815 809 817 824 821 823 824 823 824 820 816 815 814 816 818 819 818 817 815 809 811 817 810 800 797 796 803 809 807 807 808 809 812 812 812 813 813 813 814 814 816 816
824 823 822 822 821 820 820 819 818 818 817 819 826 829 829 833 837 838 839 838 837 837 834 827 824 823 821 821 821 823 827 824 820 819 814 813 822 827 826 830 835 832 832 831 822 820 823 817 816 819 820 823 827 826 824 825 823 818 817 819 819 819 817 818 822 817 816 819 805 792 796 796 796 806 811 808 809 812 813 812 813 814 814 815 814 815 816 816
823 823 822 822 821 820 819 818 818 817 818 821 825 828 830 835 840 843 843 842 840 838 835 830 825 824 825 826 824 825 826 823 820 819 816 813 822 831 829 830 836 834 835 837 827 820 824 822 818 818 819 822 827 826 822 825 828 822 821 822 818 820 820 818 823 825 824 824 811 797 797 795 795 805 813 811 812 815 814 814 816 816 817 817 816 816 816 815
823 823 823 822 821 820 819 819 818 816 820 824 825 827 834 839 844 847 847 845 843 839 835 833 830 827 827 829 829 828 829 827 824 823 820 816 822 833 833 831 835 835 834 835 831 824 823 825 821 818 820 822 824 821 816 820 826 825 824 823 820 822 823 820 821 824 827 827 819 809 804 802 802 805 809 812 813 816 818 818 818 818 818 817 816 816 816 816
824 824 823 821 821 820 819 818 818 818 822 827 828 831 837 841 845 849 849 847 845 841 837 836 835 832 830 830 832 832 831 830 828 825 822 820 824 833 841 842 840 838 837 835 834 828 824 824 821 817 820 819 817 819 817 816 819 821 821 821 821 820 819 821 820 818 822 823 822 822 817 807 803 805 808 812 814 817 820 820 820 819 819 817 817 818 817 818
824 825 824 821 820 820 819 819 821 824 825 828 831 835 839 842 845 847 849 849 846 844 843 842 840 838 835 834 833 833 832 830 828 824 822 823 826 832 846 855 851 846 841 834 833 833 828 826 824 821 819 813 814 824 826 820 818 818 817 817 819 819 820 827 828 822 824 826 827 834 831 814 804 806 809 812 814 817 819 822 823 822 821 820 820 820 820 820
825 826 824 821 820 820 819 822 827 828 828 832 838 841 843 845 846 846 848 849 847 845 846 845 842 840 838 837 835 834 834 831 827 824 824 826 832 839 850 859 858 854 847 834 832 838 836 832 831 826 819 816 822 829 829 827 822 820 821 819 818 819 822 830 835 833 834 833 829 835 836 820 807 806 809 812 815 819 822 824 826 825 823 822 822 822 822 822
826 826 823 821 821 819 821 826 829 828 833 841 844 845 847 846 845 845 847 846 846 845 845 843 841 841 841 840 839 836 836 833 827 826 828 828 839 854 859 860 857 853 848 838 834 841 839 832 831 825 814 818 829 830 827 828 823 819 822 824 825 828 830 834 836 839 843 839 832 837 836 819 807 807 812 817 822 824 825 826 827 826 825 824 825 825 824 824
828 826 823 823 821 819 823 830 831 830 835 842 843 843 847 847 846 846 845 845 846 845 844 842 842 843 842 842 842 839 837 836 830 830 833 830 842 860 862 860 859 852 849 847 843 845 838 826 829 829 820 819 823 822 823 825 821 819 823 831 836 836 837 838 837 841 844 835 829 838 835 818 809 811 815 822 827 828 828 828 829 829 828 828 828 827 827 827
829 827 825 824 822 822 827 833 834 832 834 838 840 841 843 846 849 849 847 847 848 847 846 845 845 846 844 842 843 840 838 838 835 836 838 835 844 861 862 860 860 855 855 858 856 853 841 828 830 834 832 829 825 822 825 825 824 822 825 836 841 839 840 841 842 847 848 839 837 841 834 823 818 818 821 827 830 830 831 831 831 832 832 831 831 830 830 828
830 830 829 826 824 826 832 835 834 833 835 837 838 840 840 841 847 852 850 848 849 849 847 847 846 845 843 842 842 838 835 838 838 839 841 838 843 856 860 860 860 859 859 860 858 854 844 834 834 833 832 833 829 826 826 827 830 829 830 837 841 843 846 845 847 851 851 852 851 841 835 835 830 827 833 837 837 838 837 836 835 835 834 834 833 833 831 828
832 834 835 833 830 831 834 837 836 836 837 838 839 840 840 838 841 848 850 849 850 850 848 846 846 845 842 842 842 838 834 836 839 841 844 844 844 851 860 862 859 859 860 858 856 854 845 839 840 838 834 833 832 830 828 829 832 832 834 839 841 846 849 849 853 852 851 859 855 838 837 843 836 837 846 846 843 844 843 841 840 838 837 836 835 833 830 828
834 837 839 839 838 837 836 838 840 839 838 839 841 841 840 838 839 842 846 849 850 850 847 844 844 844 842 842 844 841 836 835 838 841 845 847 846 847 852 857 858 859 859 855 854 854 849 844 846 845 841 838 836 833 831 831 831 833 839 841 842 846 849 850 854 850 849 858 855 842 842 845 843 849 854 850 849 849 846 844 843 841 840 838 835 832 830 829
836 838 840 841 840 840 841 843 844 842 839 839 840 841 840 839 840 841 843 845 847 848 847 843 843 844 842 843 844 843 841 839 839 843 847 849 848 845 844 849 855 857 856 853 854 856 852 846 846 848 845 839 834 831 829 830 832 838 846 846 845 847 848 850 853 850 850 853 850 846 845 843 849 857 856 852 852 850 848 847 846 844 842 838 835 833 832 832
837 837 839 840 840 842 844 845 844 841 838 838 839 841 841 840 842 844 844 844 844 846 847 845 845 845 843 844 845 843 846 847 845 848 852 851 850 848 845 848 852 853 853 853 855 856 852 845 842 844 842 835 830 828 828 830 836 846 853 853 851 852 853 855 855 854 855 855 850 847 847 847 854 859 857 855 853 851 851 849 846 846 843 840 838 837 836 835
837 837 838 838 839 842 842 842 841 838 837 839 841 842 843 843 846 847 846 849 849 847 849 849 848 847 844 843 844 846 851 855 853 853 855 855 853 852 851 852 853 853 852 854 855 856 854 849 843 842 842 835 828 825 829 836 845 853 861 861 857 858 861 862 860 858 857 855 853 855 858 861 863 861 858 857 855 854 854 852 851 849 844 842 842 841 839 837
838 837 837 838 839 840 841 838 837 837 840 844 846 845 845 846 848 847 845 849 853 852 852 851 851 850 845 842 846 853 858 859 857 857 857 856 855 854 854 855 855 855 853 854 857 856 855 855 849 845 845 837 826 825 832 840 849 859 867 867 863 863 866 866 863 859 857 858 864 870 872 871 867 863 861 858 856 856 855 855 855 850 845 845 845 844 842 840